Location: Aufkirchen
(47.9603°N, 11.3653°E)
Time: 23:48:54
(UTC+01:00)

A-11 Canister half - Visible Passes

Search period start: 25 November 2020 00:00
Search period end: 05 December 2020 00:00
Orbit: 1516 x 1684 km, 47.2° (Epoch: 25 November)

Date Brightness Start Highest point End Pass type
(mag) Time Alt. Az. Time Alt. Az. Time Alt. Az.
25 Nov 9.4 17:11:40 10° W 17:21:48 76° SSW 17:31:55 10° ESE visible
25 Nov 10.1 19:16:53 10° WNW 19:26:02 40° SW 19:34:00 14° SSE visible
25 Nov 11.2 21:26:15 10° WSW 21:28:46 11° WSW 21:31:16 10° SW visible
26 Nov 9.4 16:48:43 10° W 16:58:51 78° SSW 17:08:59 10° ESE visible
26 Nov 10.1 18:53:53 10° WNW 19:03:09 42° SW 19:12:21 10° SSE visible
26 Nov 11.2 21:02:22 10° W 21:05:59 12° WSW 21:09:35 10° SW visible
27 Nov 10.1 18:30:54 10° WNW 18:40:17 44° SW 18:49:35 10° SSE visible
27 Nov 11.2 20:38:47 10° W 20:43:11 14° WSW 20:47:36 10° SSW visible
28 Nov 10.1 18:07:55 10° WNW 18:17:24 46° SW 18:26:48 10° SSE visible
28 Nov 11.2 20:15:21 10° W 20:20:24 15° WSW 20:25:27 10° SSW visible
29 Nov 10.1 17:44:57 10° WNW 17:54:31 48° SW 18:04:01 10° SE visible
29 Nov 11.2 19:52:00 10° W 19:57:36 16° SW 20:03:10 10° SSW visible
30 Nov 10.1 17:21:59 10° WNW 17:31:37 50° SW 17:41:13 10° SE visible
30 Nov 11.2 19:28:44 10° W 19:34:48 18° SW 19:40:50 10° SSW visible
01 Dec 10.1 16:59:02 10° WNW 17:08:43 53° SSW 17:18:23 10° SE visible
01 Dec 11.3 19:05:32 10° W 19:11:59 19° SW 19:18:26 10° SSW visible
02 Dec 11.3 18:42:22 10° W 18:49:11 21° SW 18:55:59 10° S visible
03 Dec 11.3 18:19:13 10° W 18:26:21 22° SW 18:33:29 10° S visible
04 Dec 11.3 17:56:06 10° W 18:03:31 24° SW 18:10:58 10° S visible
